Location: Arena
(42.5007°N, 9.4650°E)
Time: 03:09:41
(UTC+00:00)

Cosmos 1825 - Pass Details

Date: 09 April 2020
Orbit: 502 x 509 km, 82.5° (Epoch: 29 May)

Event Time Altitude Azimuth Distance (km) Brightness Sun altitude
Rises 20:02:19 0° 6° (N) 2,625 6.2 -21.9°
Reaches altitude 10° 20:04:54 10° 24° (NNE) 1,732 5.0 -22.3°
Enters shadow 20:05:51 14° 36° (NE) 1,473 4.5 -22.4°
